DW4381 Weather Reports


time (UTC)temp
F
wind
direction
speed
knots
gust
knots
rain 1hr
in
rain 24hr
in
rain mn
in
humidity
%
barometer
mb
20220812002649 74 10 0.0 2.6 0.00 0.00 0.00 36 1032.8
20220812002146 74 10 0.0 3.5 0.00 0.00 0.00 36 1032.8
20220812001652 74 10 2.6 4.3 0.00 0.00 0.00 35 1032.7
20220812001146 74 10 2.6 2.6 0.00 0.00 0.00 35 1032.7
20220812000649 74 10 0.0 1.7 0.00 0.00 0.00 35 1032.8
20220812000146 74 10 0.0 5.2 0.00 0.00 0.00 36 1032.6
20220811235646 74 10 0.0 0.0 0.00 0.00 0.00 36 1032.6
20220811235152 74 10 0.0 3.5 0.00 0.00 0.00 37 1032.4
20220811234646 74 10 2.6 4.3 0.00 0.00 0.00 37 1032.4
20220811234146 74 10 0.0 0.0 0.00 0.00 0.00 37 1032.4
20220811233646 74 10 0.0 4.3 0.00 0.00 0.00 37 1032.5
20220811233149 74 10 0.0 4.3 0.00 0.00 0.00 37 1032.4
20220811232649 74 10 0.0 0.0 0.00 0.00 0.00 37 1032.4
20220811232149 74 10 0.0 5.2 0.00 0.00 0.00 36 1032.4
20220811231652 74 10 0.0 0.0 0.00 0.00 0.00 36 1032.4
20220811231149 74 10 0.0 0.0 0.00 0.00 0.00 39 1032.4
20220811230652 74 10 0.0 0.0 0.00 0.00 0.00 38 1032.4
20220811230146 74 10 0.0 0.0 0.00 0.00 0.00 40 1032.3
20220811225646 74 10 0.0 0.9 0.00 0.00 0.00 38 1032.3
20220811225152 74 10 0.0 0.0 0.00 0.00 0.00 37 1032.2
20220811224649 74 10 0.0 3.5 0.00 0.00 0.00 38 1032.1
20220811224146 74 10 0.0 3.5 0.00 0.00 0.00 37 1032.1
20220811223646 74 10 0.0 0.0 0.00 0.00 0.00 38 1031.9
20220811223152 74 10 0.0 4.3 0.00 0.00 0.00 39 1031.9
20220811222646 74 10 1.7 5.2 0.00 0.00 0.00 38 1031.8
20220811222149 74 10 0.0 5.2 0.00 0.00 0.00 38 1031.8
20220811221649 74 10 0.0 4.3 0.00 0.00 0.00 37 1031.7
20220811221146 74 10 0.0 0.0 0.00 0.00 0.00 38 1031.7
20220811220646 74 10 0.0 0.0 0.00 0.00 0.00 37 1031.7
20220811220149 74 10 0.0 6.1 0.00 0.00 0.00 36 1031.5
20220811215646 74 10 0.0 7.8 0.00 0.00 0.00 37 1031.5
20220811215146 74 10 0.0 10.4 0.00 0.00 0.00 36 1031.4
20220811214646 75 10 8.7 9.6 0.00 0.00 0.00 35 1031.3
20220811214146 75 10 0.0 2.6 0.00 0.00 0.00 34 1031.3
20220811213646 76 10 0.0 0.0 0.00 0.00 0.00 35 1031.2
20220811213152 76 10 0.0 6.1 0.00 0.00 0.00 34 1031.2
20220811212646 77 10 0.0 8.7 0.00 0.00 0.00 35 1031.1
20220811212146 77 10 0.0 12.2 0.00 0.00 0.00 33 1031.1
20220811211649 77 10 0.0 10.4 0.00 0.00 0.00 33 1031.0
20220811211146 77 10 0.0 11.3 0.00 0.00 0.00 32 1031.0
20220811210646 78 10 0.0 10.4 0.00 0.00 0.00 34 1030.9
20220811210149 78 10 3.5 9.6 0.00 0.00 0.00 33 1030.7
20220811205646 78 10 7.8 13.9 0.00 0.00 0.00 32 1030.7
20220811205152 78 10 0.0 10.4 0.00 0.00 0.00 33 1030.6
20220811204649 78 10 6.1 10.4 0.00 0.00 0.00 35 1030.7
20220811204149 78 10 8.7 11.3 0.00 0.00 0.00 34 1030.6
20220811203646 78 10 4.3 13.9 0.00 0.00 0.00 34 1030.5
20220811203146 78 10 0.0 13.0 0.00 0.00 0.00 33 1030.5
20220811202652 78 10 0.0 13.9 0.00 0.00 0.00 32 1030.5
20220811202146 78 10 0.0 15.6 0.00 0.00 0.00 33 1030.5
20220811201646 79 10 3.5 13.0 0.00 0.00 0.00 33 1030.5
20220811201146 79 10 4.3 12.2 0.00 0.00 0.00 33 1030.6
20220811200652 78 10 7.8 9.6 0.00 0.00 0.00 34 1030.6
20220811200149 78 10 0.0 11.3 0.00 0.00 0.00 34 1030.6
20220811195646 79 10 13.0 14.8 0.00 0.00 0.00 34 1030.5
20220811195146 79 10 6.1 13.0 0.00 0.00 0.00 32 1030.5
20220811194652 79 10 0.0 13.0 0.00 0.00 0.00 34 1030.5
20220811194146 80 10 8.7 13.0 0.00 0.00 0.00 32 1030.4
20220811193646 79 10 1.7 11.3 0.00 0.00 0.00 33 1030.4
20220811193149 80 10 0.0 13.0 0.00 0.00 0.00 34 1030.3
20220811192646 80 10 9.6 10.4 0.00 0.00 0.00 32 1030.1
20220811192146 80 10 0.0 6.1 0.00 0.00 0.00 33 1030.0
20220811191646 80 10 0.9 6.1 0.00 0.00 0.00 33 1030.1
20220811191146 80 10 0.0 3.5 0.00 0.00 0.00 29 1030.1
20220811190646 80 33 0.9 4.3 0.00 0.00 0.00 29 1030.1
20220811190146 80 10 0.0 11.3 0.00 0.00 0.00 29 1030.0
20220811185646 80 359 0.0 7.8 0.00 0.00 0.00 30 1030.0
20220811185146 80 359 7.0 10.4 0.00 0.00 0.00 29 1029.9
20220811184652 80 10 6.1 8.7 0.00 0.00 0.00 30 1029.7
20220811184146 79 10 0.0 6.1 0.00 0.00 0.00 31 1029.9
20220811183649 79 10 0.0 6.1 0.00 0.00 0.00 31 1029.8
20220811183146 79 10 1.7 7.8 0.00 0.00 0.00 29 1029.9
20220811182649 79 353 0.0 9.6 0.00 0.00 0.00 32 1029.8
20220811182146 79 10 4.3 2.6 0.00 0.00 0.00 31 1029.8
20220811181646 79 10 0.0 8.7 0.00 0.00 0.00 32 1029.7
20220811181146 78 353 3.5 7.0 0.00 0.00 0.00 32 1029.6
20220811180652 78 10 0.0 7.8 0.00 0.00 0.00 32 1029.6
20220811180149 77 10 0.0 4.3 0.00 0.00 0.00 32 1029.6
20220811175646 77 10 0.0 9.6 0.00 0.00 0.00 33 1029.6
20220811175149 77 10 0.0 10.4 0.00 0.00 0.00 32 1029.6
20220811174646 77 10 7.0 7.8 0.00 0.00 0.00 34 1029.4
20220811174146 76 10 0.0 4.3 0.00 0.00 0.00 34 1029.5
20220811173652 76 10 5.2 8.7 0.00 0.00 0.00 34 1029.5
20220811173149 76 10 0.0 10.4 0.00 0.00 0.00 34 1029.6
20220811172646 76 5 1.7 8.7 0.00 0.00 0.00 35 1029.5
20220811172152 76 10 0.0 11.3 0.00 0.00 0.00 35 1029.4
20220811171646 76 10 0.0 7.8 0.00 0.00 0.00 35 1029.4
20220811171146 75 10 1.7 10.4 0.00 0.00 0.00 34 1029.3
20220811170646 75 10 0.0 7.0 0.00 0.00 0.00 34 1029.4
20220811170146 75 10 1.7 10.4 0.00 0.00 0.00 34 1029.3
20220811165652 74 10 0.0 9.6 0.00 0.00 0.00 35 1029.2
20220811165149 74 10 0.0 11.3 0.00 0.00 0.00 35 1029.2
20220811164646 74 10 1.7 8.7 0.00 0.00 0.00 36 1029.2
20220811164149 74 10 7.0 8.7 0.00 0.00 0.00 36 1029.1
20220811163646 74 10 0.0 10.4 0.00 0.00 0.00 39 1029.2
20220811163146 74 10 1.7 9.6 0.00 0.00 0.00 38 1029.1
20220811162649 73 10 7.8 9.6 0.00 0.00 0.00 37 1029.0
20220811162152 73 10 2.6 9.6 0.00 0.00 0.00 38 1029.0
20220811161652 73 10 5.2 10.4 0.00 0.00 0.00 39 1028.9
20220811161149 72 10 6.1 12.2 0.00 0.00 0.00 37 1028.8
20220811160649 72 10 4.3 12.2 0.00 0.00 0.00 36 1028.8
20220811160146 72 10 6.1 12.2 0.00 0.00 0.00 36 1028.8
20220811155646 72 10 1.7 13.9 0.00 0.00 0.00 36 1028.7
20220811155149 72 10 11.3 13.9 0.00 0.00 0.00 37 1028.7
20220811154646 72 10 0.0 14.8 0.00 0.00 0.00 39 1028.7
20220811154146 71 10 0.0 13.0 0.00 0.00 0.00 37 1028.5
20220811153649 71 10 1.7 12.2 0.00 0.00 0.00 39 1028.6
20220811153149 71 10 1.7 16.5 0.00 0.00 0.00 38 1028.5
20220811152649 71 10 10.4 15.6 0.00 0.00 0.00 39 1028.5
20220811152149 71 10 0.0 13.9 0.00 0.00 0.00 38 1028.5
20220811151649 71 10 3.5 13.9 0.00 0.00 0.00 38 1028.5
20220811151149 71 10 7.0 18.2 0.00 0.00 0.00 38 1028.4
20220811150646 70 10 4.3 14.8 0.00 0.00 0.00 39 1028.3
20220811150146 70 10 0.0 14.8 0.00 0.00 0.00 38 1028.3
20220811145652 70 10 4.3 13.9 0.00 0.00 0.00 39 1028.3
20220811145149 70 10 0.0 15.6 0.00 0.00 0.00 40 1028.3
20220811144652 69 10 9.6 14.8 0.00 0.00 0.00 39 1028.2
20220811144146 69 10 6.1 14.8 0.00 0.00 0.00 40 1028.1
20220811143652 69 10 4.3 15.6 0.00 0.00 0.00 40 1028.2
20220811143149 69 10 9.6 21.7 0.00 0.00 0.00 39 1028.1
20220811142646 68 10 8.7 18.2 0.00 0.00 0.00 40 1028.2
20220811142149 68 10 7.0 18.2 0.00 0.00 0.00 40 1028.1
20220811141646 68 10 7.8 17.4 0.00 0.00 0.00 40 1028.1
20220811141146 68 10 8.7 15.6 0.00 0.00 0.00 40 1028.2
20220811140649 68 10 2.6 14.8 0.00 0.00 0.00 40 1028.4
20220811140146 68 151 7.0 14.8 0.00 0.00 0.00 40 1028.5
20220811135646 68 10 1.7 10.4 0.00 0.00 0.00 41 1028.6
20220811135146 68 10 7.8 19.1 0.00 0.00 0.00 40 1028.6
20220811134652 68 10 4.3 11.3 0.00 0.00 0.00 41 1028.6
20220811134146 68 10 0.0 6.1 0.00 0.00 0.00 41 1028.8
20220811133652 68 10 0.0 13.9 0.00 0.00 0.00 41 1028.8
20220811133152 68 10 0.0 7.0 0.00 0.00 0.00 41 1028.8
20220811132646 67 10 0.0 4.3 0.00 0.00 0.00 41 1028.8
20220811132149 67 10 5.2 6.1 0.00 0.00 0.00 42 1028.8
20220811131649 66 10 0.0 0.0 0.00 0.00 0.00 43 1028.8
20220811131146 66 10 0.0 0.0 0.00 0.00 0.00 44 1028.8
20220811130646 66 10 0.0 0.0 0.00 0.00 0.00 43 1028.9
20220811130146 65 10 0.0 0.0 0.00 0.00 0.00 44 1029.0
20220811125649 65 10 0.0 0.0 0.00 0.00 0.00 43 1028.9
20220811125149 65 10 0.0 0.0 0.00 0.00 0.00 44 1028.9
20220811124649 64 10 0.0 0.0 0.00 0.00 0.00 45 1029.0
20220811124149 64 10 0.0 0.0 0.00 0.00 0.00 44 1028.9
20220811123646 63 10 0.0 0.0 0.00 0.00 0.00 45 1028.9
20220811123152 63 10 0.0 0.0 0.00 0.00 0.00 45 1028.9
20220811122652 63 10 0.0 0.0 0.00 0.00 0.00 46 1029.0
20220811122146 62 10 0.0 0.0 0.00 0.00 0.00 46 1029.0
20220811121646 62 10 0.0 0.0 0.00 0.00 0.00 46 1029.0
20220811121152 62 10 0.0 0.0 0.00 0.00 0.00 47 1029.1
20220811120649 62 10 0.0 0.0 0.00 0.00 0.00 47 1029.2
20220811120149 62 10 0.0 0.0 0.00 0.00 0.00 47 1029.3
20220811115646 62 10 0.0 0.0 0.00 0.00 0.00 47 1029.3
20220811115152 62 10 0.0 0.0 0.00 0.00 0.00 47 1029.3
20220811114646 62 10 0.0 0.0 0.00 0.00 0.00 47 1029.3
20220811114146 62 10 0.0 0.0 0.00 0.00 0.00 47 1029.3
20220811113652 61 10 0.0 0.0 0.00 0.00 0.00 47 1029.4
20220811113149 61 10 0.0 0.0 0.00 0.00 0.00 47 1029.5
20220811112654 61 10 0.0 0.0 0.00 0.00 0.00 48 1029.6
20220811112152 61 10 0.0 0.0 0.00 0.00 0.00 48 1029.7
20220811111658 61 10 0.0 0.0 0.00 0.00 0.00 48 1029.7
20220811111156 61 10 0.0 0.0 0.00 0.00 0.00 48 1029.7
20220811110654 61 10 0.0 0.0 0.00 0.00 0.00 48 1029.9
20220811110146 61 10 0.0 0.0 0.00 0.00 0.00 48 1029.9
20220811105649 61 10 0.0 0.0 0.00 0.00 0.00 48 1030.0
20220811105146 61 10 0.0 0.0 0.00 0.00 0.00 48 1030.0
20220811104649 61 10 0.0 0.0 0.00 0.00 0.00 48 1030.1
20220811104151 61 10 0.0 0.0 0.00 0.00 0.00 49 1030.1
20220811103651 61 10 0.0 0.0 0.00 0.00 0.00 49 1030.1
20220811103149 61 10 0.0 0.0 0.00 0.00 0.00 49 1030.2
20220811102649 61 10 0.0 0.0 0.00 0.00 0.00 49 1030.2
20220811102146 61 10 0.0 0.0 0.00 0.00 0.00 49 1030.4
20220811101652 61 10 0.0 0.0 0.00 0.00 0.00 50 1030.5
20220811101157 60 10 0.0 0.0 0.00 0.00 0.00 50 1030.6
20220811100646 60 10 0.0 4.3 0.00 0.00 0.00 50 1030.8
20220811100149 60 10 0.0 0.0 0.00 0.00 0.00 51 1030.8
20220811095649 60 10 0.0 0.0 0.00 0.00 0.00 50 1030.8
20220811095146 60 10 0.0 0.0 0.00 0.00 0.00 51 1030.9
20220811094649 60 10 0.0 0.0 0.00 0.00 0.00 51 1031.0
20220811094146 60 10 0.0 0.0 0.00 0.00 0.00 51 1031.1
20220811093646 60 10 0.0 0.0 0.00 0.00 0.00 51 1031.2
20220811093146 59 10 0.0 0.0 0.00 0.00 0.00 52 1031.3
20220811092649 59 10 0.0 0.0 0.00 0.00 0.00 53 1031.3
20220811092146 59 10 0.0 7.0 0.00 0.00 0.00 53 1031.5
20220811091646 59 10 3.5 7.8 0.00 0.00 0.00 53 1031.5
20220811091146 59 10 6.1 8.7 0.00 0.00 0.00 53 1031.7
20220811090649 59 10 0.0 0.0 0.00 0.00 0.00 53 1031.7
20220811090149 59 10 0.0 0.0 0.00 0.00 0.00 53 1031.8
20220811085646 59 10 0.0 0.0 0.00 0.00 0.00 53 1031.9
20220811085146 60 10 0.0 0.0 0.00 0.00 0.00 53 1031.9
20220811084652 60 10 0.0 6.1 0.00 0.00 0.00 53 1032.0
20220811084149 60 10 0.0 0.0 0.00 0.00 0.00 53 1032.0
20220811083649 60 10 0.0 0.0 0.00 0.00 0.00 53 1032.1
20220811083146 60 10 0.0 0.0 0.00 0.00 0.00 53 1032.2
20220811082646 60 10 0.0 0.0 0.00 0.00 0.00 53 1032.3
20220811082149 60 10 0.0 8.7 0.00 0.00 0.00 53 1032.4
20220811081646 60 10 0.0 4.3 0.00 0.00 0.00 52 1032.5
20220811081152 61 10 0.0 2.6 0.00 0.00 0.00 52 1032.5
20220811080649 61 10 2.6 6.1 0.00 0.00 0.00 51 1032.7
20220811080149 61 10 4.3 10.4 0.00 0.00 0.00 51 1032.8
20220811075646 61 10 3.5 8.7 0.00 0.00 0.00 51 1032.9
20220811075146 61 10 4.3 7.8 0.00 0.00 0.00 51 1033.1
20220811074652 61 10 2.6 8.7 0.00 0.00 0.00 51 1033.0
20220811074152 61 10 0.0 10.4 0.00 0.00 0.00 51 1033.2
20220811073649 61 10 2.6 7.0 0.00 0.00 0.00 50 1033.3
20220811073149 61 10 5.2 8.7 0.00 0.00 0.00 51 1033.5
20220811072646 61 10 6.1 8.7 0.00 0.00 0.00 50 1033.6
20220811072146 61 10 4.3 10.4 0.00 0.00 0.00 50 1033.7
20220811071649 61 10 3.5 10.4 0.00 0.00 0.00 50 1033.7
20220811071146 61 10 7.8 10.4 0.00 0.00 0.00 50 1033.9
20220811070646 61 10 5.2 7.0 0.00 0.00 0.00 50 1034.1
20220811070152 61 10 0.9 9.6 0.00 0.00 0.00 50 1034.1
20220811065646 61 10 0.0 8.7 0.00 0.00 0.00 50 1034.2
20220811065146 61 10 6.1 6.1 0.00 0.00 0.00 50 1034.2
20220811064649 61 10 0.0 7.8 0.00 0.00 0.00 50 1034.4
20220811064146 61 10 0.0 6.1 0.00 0.00 0.00 50 1034.5
20220811063649 61 10 0.0 7.8 0.00 0.00 0.00 50 1034.5
20220811063146 62 10 0.0 3.5 0.00 0.00 0.00 50 1034.7
20220811062646 62 10 4.3 7.8 0.00 0.00 0.00 49 1034.7
20220811062152 62 10 0.0 7.8 0.00 0.00 0.00 49 1034.8
20220811061649 62 10 3.5 5.2 0.00 0.00 0.00 49 1034.9
20220811061149 62 10 0.0 5.2 0.00 0.00 0.00 49 1034.9
20220811060649 62 10 0.0 4.3 0.00 0.00 0.00 49 1035.0
20220811060149 62 10 0.0 7.8 0.00 0.00 0.00 49 1035.0
20220811055652 62 10 0.0 6.1 0.00 0.00 0.00 49 1035.1
20220811055149 62 10 0.0 7.0 0.00 0.00 0.00 50 1035.2
20220811054646 62 10 0.0 4.3 0.00 0.00 0.00 50 1035.3
20220811054152 62 10 3.5 3.5 0.00 0.00 0.00 50 1035.2
20220811053649 62 10 0.0 4.3 0.00 0.00 0.00 50 1035.3
20220811053146 62 10 0.0 6.1 0.00 0.00 0.00 50 1035.4
20220811052652 63 10 0.0 6.1 0.00 0.00 0.00 50 1035.4
20220811052146 63 10 0.0 7.0 0.00 0.00 0.00 50 1035.5
20220811051646 63 10 1.7 7.8 0.00 0.00 0.00 50 1035.5
20220811051152 63 10 0.0 0.0 0.00 0.00 0.00 50 1035.6
20220811050652 63 10 0.0 0.0 0.00 0.00 0.00 49 1035.7
20220811050146 63 10 0.0 0.0 0.00 0.00 0.00 49 1035.7
20220811045646 63 10 0.0 0.0 0.00 0.00 0.00 49 1035.7
20220811045152 63 10 0.0 0.0 0.00 0.00 0.00 49 1035.8
20220811044652 63 10 0.0 0.0 0.00 0.00 0.00 49 1035.9
20220811044146 63 10 0.0 0.0 0.00 0.00 0.00 49 1036.0
20220811043646 63 10 0.0 0.0 0.00 0.00 0.00 49 1036.1
20220811043146 63 10 0.0 0.0 0.00 0.00 0.00 49 1036.0
20220811042652 63 10 0.0 0.0 0.00 0.00 0.00 49 1036.0
20220811042146 63 10 0.0 0.0 0.00 0.00 0.00 50 1036.0
20220811041646 63 10 0.0 0.0 0.00 0.00 0.00 50 1036.1
20220811041149 63 10 0.0 0.0 0.00 0.00 0.00 51 1036.1
20220811040646 63 10 0.0 0.0 0.00 0.00 0.00 51 1036.1
20220811040146 63 10 0.0 0.0 0.00 0.00 0.00 51 1036.2
20220811035646 63 10 0.0 0.0 0.00 0.00 0.00 51 1036.2
20220811035149 63 10 0.0 0.0 0.00 0.00 0.00 50 1036.2
20220811034649 63 10 0.0 0.0 0.00 0.00 0.00 50 1036.2
20220811034146 64 10 0.0 0.0 0.00 0.00 0.00 49 1036.2
20220811033649 64 10 0.0 0.0 0.00 0.00 0.00 49 1036.2
20220811033146 64 10 0.0 0.0 0.00 0.00 0.00 49 1036.3
20220811032652 64 10 0.0 0.0 0.00 0.00 0.00 48 1036.4
20220811032149 64 10 0.0 0.0 0.00 0.00 0.00 48 1036.4
20220811031649 65 10 0.0 0.0 0.00 0.00 0.00 48 1036.3
20220811031149 65 10 0.0 0.0 0.00 0.00 0.00 47 1036.2
20220811030646 65 10 0.0 0.0 0.00 0.00 0.00 46 1036.3
20220811030149 66 10 0.0 0.0 0.00 0.00 0.00 46 1036.2
20220811025646 66 10 0.0 0.0 0.00 0.00 0.00 45 1036.2
20220811025149 66 10 0.0 0.0 0.00 0.00 0.00 44 1036.3
20220811024652 66 10 0.0 0.0 0.00 0.00 0.00 43 1036.2
20220811024146 67 10 0.0 0.0 0.00 0.00 0.00 43 1036.3
20220811023652 67 10 0.0 0.0 0.00 0.00 0.00 42 1036.3
20220811023152 67 10 0.0 0.0 0.00 0.00 0.00 41 1036.3
20220811022646 67 10 0.0 0.0 0.00 0.00 0.00 41 1036.3
20220811022146 68 10 0.0 0.0 0.00 0.00 0.00 40 1036.2
20220811021649 68 10 0.0 0.0 0.00 0.00 0.00 39 1036.2
20220811021149 68 10 0.0 0.0 0.00 0.00 0.00 38 1036.1
20220811020649 69 10 0.0 0.0 0.00 0.00 0.00 37 1036.2
20220811020149 69 10 0.0 0.0 0.00 0.00 0.00 36 1036.1
20220811015646 70 10 0.0 0.0 0.00 0.00 0.00 35 1036.0
20220811015146 70 10 0.0 0.0 0.00 0.00 0.00 35 1036.1
20220811014646 70 10 0.0 0.0 0.00 0.00 0.00 35 1036.0
20220811014152 71 10 0.0 0.0 0.00 0.00 0.00 35 1036.0
20220811013649 71 10 0.0 0.0 0.00 0.00 0.00 34 1035.9
20220811013149 71 10 0.0 0.0 0.00 0.00 0.00 34 1035.8
20220811012649 72 10 0.0 0.0 0.00 0.00 0.00 34 1035.8
20220811012146 72 10 0.0 0.0 0.00 0.00 0.00 33 1035.8
20220811011649 72 10 0.0 3.5 0.00 0.00 0.00 32 1035.8
20220811011149 72 10 0.0 0.0 0.00 0.00 0.00 32 1035.7
20220811010649 73 81 0.0 0.0 0.00 0.00 0.00 31 1035.8
20220811010149 72 10 0.0 0.0 0.00 0.00 0.00 31 1035.6
20220811005646 73 10 0.0 0.0 0.00 0.00 0.00 31 1035.6
20220811005149 73 10 0.0 0.0 0.00 0.00 0.00 32 1035.5
20220811004652 73 10 0.0 0.0 0.00 0.00 0.00 32 1035.5
20220811004149 73 10 0.0 0.0 0.00 0.00 0.00 32 1035.4
20220811003646 73 10 0.0 0.0 0.00 0.00 0.00 31 1035.4
20220811003146 73 10 0.0 0.0 0.00 0.00 0.00 31 1035.4